Aérodrome :
LOGIN :

S'inscrire | Disclaimer

   EN    FR    IT 

 










Légende :    VFR   VFR Marginal   IFR   IFR Intensif   IFR Très Intensif
Visi : 
Plafond : 
>= 8 km
>= 3000ft
5 à 8 km
1000 à 3000 ft
1500m à 5 km
500 à 1000 ft
800 à 1500m
200 à 500 ft
< 800m
< 200 ft
Symboles :   Orages  Brouillard  Fortes neiges  Fortes précipitations  Vent > 20 kt
SIGMETs :   Divers  Orages  Givrage  Turbulence  Onde Orograph.  Cendres Volcan.







- Altitude de l'aérodrome : 102 ft
- Code IATA : CNG
- Voir les cartes d'approche


LFBG - Cognac

DERNIER METAR :
  • 200930Z AUTO 00000KT 7000 OVC005 07/06 Q1013

METARs EXPIRÉS :
  • 200900Z AUTO 00000KT 6000 SCT005 OVC044 06/06 Q1012
  • 200830Z AUTO 07003KT 3000 BR FEW005 OVC042 06/05 Q1012
  • 200800Z AUTO 09002KT 2600 BR FEW005 OVC043 05/05 Q1012
  • 200730Z AUTO 05003KT 1400 1000 R23/1300N BR BKN043/// OVC049/// ///TCU 05/05 Q1011
  • 200700Z AUTO 11003KT 2600 BR FEW047/// SCT064/// BKN084/// ///TCU 05/05 Q1011

Prévision TAF périmée.
Pas de NOTAMs connus pour ce terrain.



MET'MAP, la Météo Aéronautique d'un coup d'oeil ! - Copyright ORBIFLY Décembre 2007 - Disclaimer

ORBIFLY MET'MAP TEAM :

Programmation & Développement : Alexandra Zaïnal
Conception & Développement : Baudouin d'Aumeries
Co-Programmation & Développement : Marc-Olivier Méhu
Soutien technique & logistique : Manuel Goepfert

Contact : metmap@orbifly.com




SOURCES & CREDITS :

   NOAA